Fresno, CA

3:25 AM PST on November 20, 2019 (GMT -0800)
Fresno Yosemite International

Weather History for KFAT - September, 2019

Change the Weather History Date:

Friday, September 13, 2019

  Actual Average Record
Temperature  
Mean Temperature 82 °F 77 °F  
Max Temperature 99 °F 92 °F 106 °F (1983)
Min Temperature 65 °F 62 °F 48 °F (1970)
Degree Days  
Heating Degree Days 0    
Month to date heating degree days 0  
Since 1 July heating degree days 0  
Cooling Degree Days 17    
Month to date cooling degree days 214  
Year to date cooling degree days 2155  
Growing Degree Days 32 (Base 50)    
Moisture  
Dew Point 50 °F    
Average Humidity 39    
Maximum Humidity 63    
Minimum Humidity 15    
Precipitation  
Precipitation 0.00 in 0.01 in 0.01 in (1895)
Month to date precipitation 0.00 0.04  
Year to date precipitation 9.52 7.90  
Snow  
Snow 0.00 in - - ()
Month to date snowfall 0.0  
Since 1 July snowfall 0.0  
Since 1 September snowfall 0.0  
Snow Depth 0.00 in    
Sea Level Pressure  
Sea Level Pressure 29.95 in    
Wind  
Wind Speed 5 mph (NW)    
Max Wind Speed 13 mph    
Max Gust Speed 16 mph    
Visibility 10 miles    
Events      
T = Trace of Precipitation, MM = Missing Value Source: NWS Daily Summary

Daily Weather History Graph

Daily Weather History Graph

Search for Another Location

Airport or City:

Astronomy

Sep. 13, 2019 Rise Set
Actual Time 6:39 AM PDT 7:09 PM PDT
Civil Twilight 6:13 AM PDT 7:35 PM PDT
Nautical Twilight 5:42 AM PDT 8:06 PM PDT
Astronomical Twilight 5:11 AM PDT 8:37 PM PDT
Moon 7:23 PM PDT (9/13) 6:03 AM PDT (9/13)
Length of Visible Light 13h 22m
Length of Day
12h 30m
Full, 100% of the Moon is Illuminated
Sep 13
Full
Sep 13
Full
Sep 21
Last Quarter
Sep 28
New
Oct 5
First Quarter

Hourly Weather History & Observations

Time (PDT) Temp. Dew Point Humidity Pressure Visibility Wind Dir Wind Speed Gust Speed Precip Events Conditions
12:53 AM 75.0 °F 52.0 °F 44% 29.96 in 10.0 mi NNW 5.8 mph - N/A   Clear
1:53 AM 72.0 °F 53.1 °F 51% 29.97 in 10.0 mi NNE 3.5 mph - N/A   Clear
2:53 AM 70.0 °F 53.1 °F 55% 29.97 in 10.0 mi Calm Calm - N/A   Clear
3:53 AM 68.0 °F 52.0 °F 56% 29.97 in 10.0 mi Calm Calm - N/A   Clear
4:53 AM 66.9 °F 54.0 °F 63% 29.97 in 10.0 mi Calm Calm - N/A   Clear
5:53 AM 66.9 °F 54.0 °F 63% 29.98 in 10.0 mi East 3.5 mph - N/A   Clear
6:53 AM 68.0 °F 52.0 °F 56% 30.00 in 10.0 mi Calm Calm - N/A   Partly Cloudy
7:53 AM 70.0 °F 52.0 °F 53% 30.01 in 9.0 mi ESE 4.6 mph - N/A   Partly Cloudy
8:53 AM 75.0 °F 52.0 °F 44% 30.01 in 9.0 mi ESE 8.1 mph - N/A   Partly Cloudy
9:53 AM 81.0 °F 51.1 °F 35% 30.01 in 10.0 mi ESE 11.5 mph - N/A   Partly Cloudy
10:53 AM 84.0 °F 52.0 °F 33% 30.01 in 10.0 mi SSE 11.5 mph - N/A   Scattered Clouds
11:53 AM 86.0 °F 52.0 °F 31% 30.00 in 10.0 mi SSE 5.8 mph - N/A   Scattered Clouds
12:53 PM 90.0 °F 52.0 °F 27% 29.98 in 10.0 mi WNW 3.5 mph - N/A   Mostly Cloudy
1:53 PM 93.9 °F 50.0 °F 22% 29.95 in 10.0 mi WNW 3.5 mph - N/A   Mostly Cloudy
2:53 PM 97.0 °F 46.9 °F 18% 29.92 in 10.0 mi WNW 4.6 mph - N/A   Mostly Cloudy
3:53 PM 98.1 °F 43.0 °F 15% 29.91 in 10.0 mi NW 6.9 mph - N/A   Mostly Cloudy
4:53 PM 98.1 °F 45.0 °F 16% 29.89 in 10.0 mi WNW 9.2 mph - N/A   Mostly Cloudy
5:53 PM 98.1 °F 42.1 °F 15% 29.88 in 10.0 mi NW 8.1 mph - N/A   Mostly Cloudy
6:53 PM 95.0 °F 43.0 °F 17% 29.88 in 10.0 mi WNW 8.1 mph - N/A   Mostly Cloudy
7:53 PM 90.0 °F 46.9 °F 23% 29.89 in 10.0 mi NW 4.6 mph - N/A   Scattered Clouds
8:53 PM 86.0 °F 46.9 °F 26% 29.90 in 10.0 mi NNW 4.6 mph - N/A   Scattered Clouds
9:53 PM 82.0 °F 51.1 °F 34% 29.91 in 10.0 mi NW 4.6 mph - N/A   Scattered Clouds
10:53 PM 81.0 °F 48.0 °F 31% 29.91 in 10.0 mi NW 3.5 mph - N/A   Scattered Clouds
11:53 PM 77.0 °F 48.0 °F 36% 29.91 in 10.0 mi WNW 4.6 mph - N/A   Mostly Cloudy